   Germany.
(K83) Beppe Forti Astronomical Observatory, Montelupo  (N43.755333
   E11.043170)  Italy.
(L01) Višnjan Observatory, Tičan  (N45.290900 E13.749300)  Croatia.
   Observers K. Korlević, E. Pettarin. Measurer E. Pettarin. 1.0-m f/2.9
   reflector + CCD.
(T05) ATLAS-HKO, Haleakala  (N20.707573 W156.257010)  US/Hawaii.  Observers
   L. Denneau, A. Heinze, H. Weiland, J. Tonry, H. Flewelling, A.
   Fitzsimmons, D. Young, B. Stalder. Measurers L. Denneau, A. Heinze, J.
   Tonry. 0.5-m f/2.0 Schmidt + CCD.
(V01) Mountainville Observatory, Alpine  (N40.448904 W111.760890)  US/Utah.
(W34) Squirrel Valley Observatory, Columbus  (N35.225393 W82.154700)
   US/North Carolina.  Observer R. L. Flynn. 0.20-m f/10 Schmidt-Cassegrain +
   f/7.0 focal reducer.

Orbital elements:  A10fwNJ
   Perihelion 2019 May 28.843910 +/- 0.0427 TT = 20:15:13 (JD 2458632.343910)
Epoch 2019 Aug 15.0 TT = JDT 2458710.5   Earth MOID: 0.0564   Ve: 0.0664
M  80.57378135 +/- 0.13             (J2000 ecliptic)          AutoNEOCP
n   1.03093414 +/- 0.00112          Peri.   52.57498 +/- 0.08
a   0.97046996 +/- 0.000701         Node   146.22862 +/- 0.0009
e   0.3940320 +/- 0.000141          Incl.   46.34204 +/- 0.058
P   0.96/349.19d           H 19.9   G  0.15   U  8.2  
q 0.58807368 +/- 0.000289    Q 1.35286624 +/- 0.00111
From 102 observations 2019 Aug. 13-15 (40.5 hr); mean residual 0".36
Residuals in arcseconds: 
190813 T05  .00   .17-    190814 L01  .27-  .32+    190814 160  .39-  .23+    
190813 T05  .08+  .11-    190814 L01  .11-  .02+    190814 K38  .02-  .02+    
190813 T05  .26+  .32-    190814 L01  .17+  .04-    190814 K38  .25-  .09+    
190813 T05  .28+  .22+    190814 L01  .00   .25+    190814 G34  .16+  .33+    
190813 C95  .05-  .56+    190814 K83  .06-  .17-    190814 G34  .09+  .00     
190813 C95  .22+  .11-    190814 K83  .06+  .23+    190814 G34  .41-  .18-    
190813 C95  .97-  .57+    190814 A44  .53-  .86-    190814 G34  .02+  .02+    
190813 204  .13+  .45-    190814 K83  .04+  .46-    190814 G34  .14-  .20-    
190813 204  .10+  .23-    190814 A44  .17-  .02-    190815 595  .09+  .00     
190813 204  .08+  .21+    190814 A44  .11-  .18-    190815 595  .54+  .56+    
190813 204  .07+  .27-    190814 A44  .23-  .55-    190815 595  .33+  .46+    
190813 204  .06+  .31-    190814 A44  .11+  .13+    190815 G40  .37+  .70+    
190813 C77  .10-  .02+    190814 104  .02+  .28+    190815 G40  .49+  .37+    
190813 C77  .06+  .19-    190814 104  .05-  .15+    190815 G40  .13+  .06+    
190813 C77  .10-  .13-    190814 C77  .05-  .00     190815 G40  .04-  .16+    
190814 G40  .06+  .08-    190814 C77  .16-  .22+    190815 K63  .37-  .31-    
190814 G40  .11-  .09+    190814 C77  .06-  .14-    190815 K63  .22-  .24-    
190814 G40  .35-  .06-    190814 C77  .18-  .16+    190815 K63  .32-  .39-    
190814 718  .77+  .03+    190814 104  .01+  .10+    190815 734  .02+  .68-    
190814 718  .68+  .11-    190814 K74  .07-  .09+    190815 734  .16-  .70-    
190814 718  .61+  .11-    190814 K74  .06+  .34+    190815 734  .65-  1.1-    
190814 718  .75+  .39+    190814 K74  .02-  .32+    190815 734  .28-  .76-    
190814 718  .35+  .30+    190814 203  .01+  .20+    190815 734  .42-  .52+    
190814 718  .50+  .02+    190814 K74  .14-  .26+    190815 W34  .32-  .53-    
190814 H21  .11-  .25+    190814 203  .03+  .15+    190815 W34  .37-  .28-    
190814 H21  .00   .23+    190814 203  .03+  .08+    190815 W34  .44-  .39-    
190814 H21  .01-  .22+    190814 K38  .16-  .03+    190815 W34  .21-  .54-    
190814 H21  .00   .24+    190814 K38  .11-  .03-    190815 W34  .30+  .07-    
190814 H21  .11-  .15+    190814 K38  .00   .31+    190815 718  .79+  .18+    
190814 H21  .00   .16+    190814 160  .28-  .00     190815 718  .98+  .07+    
190814 V01  .15-  .31-    190814 160  .10-  .35+    190815 718  .56+  .43+    
190814 V01  .28-  .54-    190814 K38  .10-  .47+    190815 718  1.1+  .40+    
190814 V01  .42-  .79-    190814 160  .08+  .09+    190815 718  1.2+  .81+    
190814 L01  .07+  .10-    190814 160  .14+  .07+    190815 718  1.2+  .79+    

Ephemerides (geocentric):
Date (UTC) HH   RA              Dec         delta   r     elong  mag " sig PA
---- -- -- --  -------------   -----------  ------ ------ -----  --- ---- ---
2019 08 15 12  23 27 08.660   +30 49 21.63  .06951 1.0570 127.9 16.0 .108 102
2019 08 15 13  23 26 30.715   +30 24 21.31  .06929 1.0573 128.4 16.0 .110 100
2019 08 15 14  23 25 52.845   +29 59 10.53  .06907 1.0575 128.8 16.0 .112  98
2019 08 15 15  23 25 15.052   +29 33 49.38  .06885 1.0578 129.3 16.0 .114  95
2019 08 15 16  23 24 37.334   +29 08 17.95  .06864 1.0580 129.8 16.0 .117  93
2019 08 15 17  23 23 59.693   +28 42 36.35  .06843 1.0583 130.2 15.9 .120  91
2019 08 15 18  23 23 22.129   +28 16 44.69  .06823 1.0585 130.7 15.9 .123  89
2019 08 15 19  23 22 44.641   +27 50 43.07  .06803 1.0588 131.2 15.9 .126  86
2019 08 15 20  23 22 07.231   +27 24 31.63  .06783 1.0591 131.6 15.9 .130  84
2019 08 15 21  23 21 29.899   +26 58 10.50  .06764 1.0593 132.1 15.9 .134  82
2019 08 15 22  23 20 52.645   +26 31 39.80  .06746 1.0596 132.6 15.9 .138  79
2019 08 15 23  23 20 15.470   +26 04 59.68  .06727 1.0598 133.0 15.8 .143  77
2019 08 16 00  23 19 38.373   +25 38 10.28  .06710 1.0601 133.5 15.8 .148  75
2019 08 16 01  23 19 01.355   +25 11 11.76  .06692 1.0603 134.0 15.8 .153  73
2019 08 16 02  23 18 24.417   +24 44 04.29  .06676 1.0606 134.5 15.8 .159  71
2019 08 16 03  23 17 47.558   +24 16 48.02  .06659 1.0608 135.0 15.8 .165  69
2019 08 16 04  23 17 10.779   +23 49 23.14  .06643 1.0611 135.5 15.8 .171  67
2019 08 16 05  23 16 34.081   +23 21 49.82  .06628 1.0614 135.9 15.7 .178  65
2019 08 16 06  23 15 57.463   +22 54 08.25  .06613 1.0616 136.4 15.7 .185  63
2019 08 16 07  23 15 20.926   +22 26 18.62  .06598 1.0619 136.9 15.7 .193  61
2019 08 16 08  23 14 44.469   +21 58 21.13  .06584 1.0621 137.4 15.7 .201  60
2019 08 16 09  23 14 08.094   +21 30 15.99  .06571 1.0624 137.9 15.7 .209  58
2019 08 16 10  23 13 31.801   +21 02 03.42  .06558 1.0626 138.4 15.6 .218  57
2019 08 16 11  23 12 55.590   +20 33 43.62  .06545 1.0629 138.9 15.6 .227  55
2019 08 16 12  23 12 19.460   +20 05 16.82  .06533 1.0631 139.4 15.6 .236  54
2019 08 16 13  23 11 43.413   +19 36 43.26  .06522 1.0634 139.9 15.6 .246  52
2019 08 16 14  23 11 07.449   +19 08 03.16  .06510 1.0636 140.4 15.6 .256  51
2019 08 16 15  23 10 31.567   +18 39 16.77  .06500 1.0639 140.9 15.6 .267  50
2019 08 16 16  23 09 55.769   +18 10 24.34  .06490 1.0642 141.4 15.6 .278  49
2019 08 16 17  23 09 20.053   +17 41 26.12  .06480 1.0644 141.9 15.5 .289  48
2019 08 16 18  23 08 44.422   +17 12 22.36  .06471 1.0647 142.5 15.5 .300  47
2019 08 16 19  23 08 08.874   +16 43 13.33  .06462 1.0649 143.0 15.5 .312  46
2019 08 16 20  23 07 33.409   +16 13 59.29  .06454 1.0652 143.5 15.5 .324  45
2019 08 16 21  23 06 58.030   +15 44 40.52  .06447 1.0654 144.0 15.5 .337  44
2019 08 16 22  23 06 22.734   +15 15 17.28  .06440 1.0657 144.5 15.5 .350  43
2019 08 16 23  23 05 47.523   +14 45 49.87  .06433 1.0659 145.0 15.4 .363  42
2019 08 17 00  23 05 12.396   +14 16 18.56  .06427 1.0662 145.5 15.4 .376  41
2019 08 17 01  23 04 37.355   +13 46 43.64  .06422 1.0664 146.0 15.4 .390  41
2019 08 17 02  23 04 02.399   +13 17 05.40  .06417 1.0667 146.5 15.4 .404  40
2019 08 17 03  23 03 27.528   +12 47 24.14  .06412 1.0669 147.1 15.4 .418  39
2019 08 17 04  23 02 52.742   +12 17 40.14  .06408 1.0672 147.6 15.4 .432  39
2019 08 17 05  23 02 18.042   +11 47 53.71  .06405 1.0674 148.1 15.4 .447  38
2019 08 17 06  23 01 43.428   +11 18 05.15  .06402 1.0677 148.6 15.3 .462  37
2019 08 17 07  23 01 08.900   +10 48 14.77  .06399 1.0679 149.1 15.3 .477  37
2019 08 17 08  23 00 34.458   +10 18 22.86  .06397 1.0682 149.6 15.3 .493  36
2019 08 17 09  23 00 00.102   +09 48 29.73  .06396 1.0684 150.1 15.3 .509  36
2019 08 17 10  22 59 25.832   +09 18 35.70  .06395 1.0687 150.6 15.3 .525  35
2019 08 17 11  22 58 51.649   +08 48 41.06  .06395 1.0689 151.1 15.3 .541  35